User: anonymous   Login
Location: Unspecified
(0.0000°N, 0.0000°E)
Time: 23:24:58
(UTC+02:00)
Language:

AO-7 - Orbit

View from above orbital plane
View from above orbital plane
View from above satellite
View from above satellite

Ground track
Ground track

The orbit data is extracted from the following two-line orbital elements,

1  7530U 74089B   18173.92070601 -.00000037 +00000-0 +47358-4 0  9990
2  7530 101.6871 141.1549 0011941 326.4645 097.9174 12.53633090995082
Epoch (UTC): 22 June 2018 22:05:48
Eccentricity: 0.0011941
inclination: 101.6871°
perigee height: 1440 km
apogee height: 1458 km
right ascension of ascending node: 141.1549°
argument of perigee: 326.4645°
revolutions per day: 12.53633090
mean anomaly at epoch: 97.9174°
orbit number at epoch: 99508

The dashed part of the orbit path shows where the satellite is in the earth's shadow,  

DLR